Location: Carrières
(48.9495°N, 2.0407°E)
Time: 02:18:25
(UTC+00:00)

Transit 2A - Pass Details

Date: 20 April 2024
Orbit: 594 x 957 km, 66.7° (Epoch: 19 May)

Event Time Altitude Azimuth Distance (km) Brightness Sun altitude
Rises 06:30:03 0° 210° (SSW) 2,841 8.7 15.2°
Reaches altitude 10° 06:32:13 10° 209° (SSW) 1,962 7.9 15.6°
Maximum altitude 06:36:36 79° 124° (ESE) 656 6.1 16.3°
Drops below altitude 10° 06:41:23 10° 38° (NE) 2,131 8.9 17.1°
Sets 06:43:50 0° 37° (NE) 3,108 9.7 17.5°
